Simultaneous Nadir Overpasses (SNOs) Predictions

Prediction of SNOs between METOP-B and TERRA Satellite Orbit:

Table of predicted SNOs for the next 14.0 days since TLE Epoch: 4/22/2023
Index Date (METOP-B) Time (METOP-B) Lat,Lon (METOP-B) SZA (METOP-B ) Date (TERRA) Time (TERRA) Lat,Lon (TERRA) SZA (TERRA ) Distance(km) Time Diff (sec)
1 04/23/2023 09:53:11 80.85, 64.75 69.87 04/23/2023 09:54:24 80.86, 64.89 69.92 2.58 73
2 04/23/2023 10:43:49 -80.90,-126.92 110.01 04/23/2023 10:43:45 -80.89,-127.00 110.03 1.56 4
3 04/26/2023 02:04:48 80.87,-177.79 69.06 04/26/2023 02:05:25 80.87,-177.77 69.07 0.37 37
4 04/26/2023 02:55:27 -80.90, -9.79 110.87 04/26/2023 02:54:46 -80.90, -9.66 110.87 2.29 41
5 04/28/2023 18:16:25 80.88, -60.41 68.26 04/28/2023 18:16:25 80.88, -60.36 68.26 0.94 0
6 05/01/2023 09:37:22 -80.86,-111.01 112.60 05/01/2023 09:38:02 -80.87,-110.96 112.58 0.99 40
7 05/01/2023 10:28:00 80.91, 57.23 67.52 05/01/2023 10:27:23 80.90, 57.14 67.49 1.90 37
8 05/04/2023 01:48:58 -80.89, 6.57 113.32 05/04/2023 01:49:00 -80.90, 6.63 113.30 1.38 2



Historial Predications of SNOs between METOP-B and TERRA
